Location: Unspecified
(20.0000°S, 0.0000°E)
Time: 16:35:36
(UTC+00:00)

BEESAT - Pass Details

Date: 29 August 2019
Orbit: 700 x 709 km, 98.6° (Epoch: 18 October)

Event Time Altitude Azimuth Distance (km) Brightness Sun altitude
Rises 04:20:23 0° 151° (SSE) 3,102 ? -26.8°
Reaches altitude 10° 04:22:57 10° 138° (SE) 2,178 ? -26.2°
Maximum altitude 04:26:59 27° 81° (E) 1,337 ? -25.2°
Drops below altitude 10° 04:30:58 10° 23° (NNE) 2,160 ? -24.3°
Sets 04:33:30 0° 11° (N) 3,071 ? -23.7°
